Location: Limerick
(52.6800°N, 8.6400°W)
Time: 23:48:46
(UTC+01:00)

Daily predictions for brighter satellites

Satellite Brightness Start Highest point End
(mag) Time Altitude Azimuth Time Altitude Azimuth Time Altitude Azimuth
Cosmos 2344 4.4 22:08:37 10° SSE 22:15:03 30° ESE 22:22:10 10° NE
Cosmos 1125 Rocket 3.9 22:13:23 10° S 22:18:18 42° ESE 22:23:13 10° NE
ATLAS 3B R/B 3.7 22:11:43 10° WSW 22:18:53 55° NNW 22:25:45 10° NE
Cosmos 1340 2.7 22:15:38 10° N 22:19:27 71° ENE 22:23:13 10° SSE
Cosmos 2297 Rocket 4.1 22:19:35 10° NNW 22:23:57 22° NNE 22:28:19 10° E
Cosmos 1437 4.2 22:26:10 10° N 22:28:54 25° ENE 22:31:36 10° SE
YAOGAN 11 4.2 22:24:51 10° SSE 22:29:23 77° ENE 22:33:54 10° NNW
Meteor 1-27 Rocket 3.8 22:23:35 10° N 22:29:26 74° ENE 22:35:06 10° SSE
H-2A R/B 3.6 22:26:14 10° ESE 22:29:26 22° ENE 22:32:40 10° N
ATLAS 5 CENTAUR R/B 2.7 22:23:56 10° NW 22:29:40 63° SW 22:36:00 10° SSE
Aureole 1 4.5 22:27:40 10° SSW 22:30:49 89° ESE 22:34:43 10° NNE
Cosmos 1606 3.1 22:29:29 10° NNW 22:33:14 62° W 22:36:58 10° S
Cosmos 1867 3.7 22:29:04 10° NW 22:34:34 74° NE 22:40:01 10° SE
Lacrosse 5 rocket 1.6 22:36:04 10° SSW 22:39:22 35° SE 22:42:46 10° ENE
Aureole 3 3.1 22:40:21 10° SSW 22:43:19 64° WNW 22:46:22 10° N
IGS 5A 4.2 22:39:47 10° SE 22:43:37 39° ENE 22:47:31 10° N
Cosmos 494 Rocket 4.2 22:39:08 10° NNW 22:44:23 64° ENE 22:49:19 11° SE
Okean 1-7 4.3 22:41:16 10° NNW 22:45:25 41° W 22:49:33 10° SSW
H-2A R/B 2.2 22:40:54 10° SSE 22:46:19 87° ENE 22:51:39 10° NNW
DNEPR-1 R/B 3.9 22:43:27 10° SSW 22:48:10 46° SE 22:52:21 10° NE
ARGOS 3.5 22:44:27 10° S 22:49:47 64° WSW 22:55:08 10° NNW
Cosmos 1656 Rocket 4.5 22:45:22 10° SSE 22:50:04 30° ESE 22:54:51 10° NE
BREEZE M DEB (TANK) 4.4 22:45:42 10° SW 22:54:09 34° SSE 22:57:28 10° E
NOSS 3-2 (A) 4.2 22:54:04 10° WSW 23:00:16 62° NW 23:07:14 10° NE
USA 215 4.2 23:00:27 10° SSE 23:06:22 35° SW 23:12:19 10° WNW
CZ-4C R/B 3.9 23:06:44 10° NW 23:12:44 39° NNE 23:19:34 10° E
Cosmos 2227 Rocket 3.1 23:08:51 10° NNW 23:14:12 40° NE 23:19:19 11° ESE
Cosmos 1733 Rocket 3.0 23:11:12 10° S 23:15:31 84° E 23:19:53 10° NNE
Cosmos 1408 4.0 23:12:28 10° SW 23:16:00 40° WNW 23:19:35 10° N
Cosmos 2219 3.3 23:14:12 10° NNW 23:19:59 90° ESE 23:24:39 16° SSE
NOSS 3-2 (C) 4.3 23:14:41 10° WSW 23:20:54 60° NNW 23:27:52 10° NE
Sich 1 Rocket 4.0 23:19:58 16° SSE 23:23:14 45° E 23:27:27 10° NNE
Landsat 7 4.2 23:20:48 12° S 23:25:10 63° WSW 23:29:56 10° NNW
Cosmos 1825 3.8 23:21:56 10° SW 23:25:26 35° WNW 23:28:57 10° N
DMSP B5D2-2 4.0 23:25:14 10° NNE 23:30:29 77° ESE 23:35:42 10° S
PSLV R/B 3.4 23:30:47 25° SE 23:32:04 47° ENE 23:34:46 10° N
Lacrosse 4 Rocket 3.4 23:29:37 10° WNW 23:33:08 22° WSW 23:36:35 10° SSW
Gbstr 26 Del rocket 2.9 23:28:59 10° W 23:33:34 64° SSW 23:36:31 17° ESE
Cosmos 1975 Rocket 3.3 23:29:13 10° N 23:33:38 58° ENE 23:36:37 20° SSE
Cosmos 1943 Rocket 2.4 23:28:47 10° SW 23:34:21 73° WNW 23:39:56 10° NNE
S3M 4.5 23:28:30 10° N 23:34:25 47° ENE 23:38:52 17° SE
Cosmos 2251 Rocket 3.7 23:30:18 10° NNW 23:35:31 66° WSW 23:39:29 17° S
CENTAUR R/B 2.6 23:29:16 10° SW 23:35:33 88° SE 23:42:51 10° NE
Cosmos 1862 4.4 23:34:06 10° SSW 23:37:55 44° WNW 23:41:46 10° N
Terra 2.1 23:36:28 15° S 23:40:19 64° WSW 23:45:05 10° NNW
ALOS 2 4.2 23:40:36 13° ESE 23:43:36 24° ENE 23:47:09 10° N
Cosmos 1346 3.9 23:41:21 10° NNW 23:43:55 38° W 23:45:21 20° SSW
Cosmos 1092 Rocket 4.0 23:38:09 10° S 23:44:19 90° E 23:50:30 10° N
ARGOS Delta rocket 4.3 23:40:42 10° NNE 23:45:00 40° E 23:47:24 22° SSE
Nadezhda 4 Rocket 4.3 23:39:15 10° SSW 23:45:26 68° WNW 23:51:36 10° N
Cosmos 1812 2.7 23:41:39 10° N 23:45:34 87° E 23:47:54 23° SSE
Meteor 1-18 Rocket 4.3 23:41:21 10° NNW 23:47:05 81° ENE 23:51:15 20° SSE
Cosmos 1378 Rocket 3.9 23:43:12 10° NNW 23:47:35 64° W 23:50:50 18° S
CARTOSAT-1 4.2 23:44:55 16° S 23:48:15 50° W 23:52:30 10° NNW
ATLAS CENTAUR R/B 2.2 23:47:32 24° SSE 23:48:33 27° ESE 23:51:50 10° ENE
COSMOS 2455 3.9 23:43:43 10° WSW 23:49:32 48° NW 23:55:23 10° NE
Cosmos 1633 3.8 23:50:30 22° ESE 23:51:38 26° E 23:54:39 10° NNE
ISS -3.9 23:48:47 10° WSW 23:52:00 59° SSE 23:55:13 10° E
Cosmos 1553 Rocket 4.2 23:46:37 10° N 23:53:00 66° ENE 23:57:26 20° SSE
